| time (UTC) | temp F | wind direction | speed MPH | gust MPH | rain 1hr in | rain 24hr in | rain mn in | humidity % | barometer mb |
| 20260507182031 | 86 | 0 | 0.0 | 2.0 | 0.00 | 0.00 | 0.00 | 13 | 1013.1 |
| 20260507181549 | 86 | 0 | 0.0 | 1.0 | 0.00 | 0.00 | 0.00 | 17 | 1013.1 |
| 20260507181034 | 86 | 0 | 0.0 | 1.0 | 0.00 | 0.00 | 0.00 | 14 | 1013.2 |
| 20260507180534 | 86 | 0 | 0.0 | 4.0 | 0.00 | 0.00 | 0.00 | 15 | 1013.2 |
| 20260507180052 | 86 | 0 | 0.0 | 4.0 | 0.00 | 0.00 | 0.00 | 17 | 1013.2 |
| 20260507175535 | 86 | 0 | 1.0 | 4.0 | 0.00 | 0.00 | 0.00 | 18 | 1013.3 |
| 20260507175034 | 85 | 0 | 1.0 | 6.0 | 0.00 | 0.00 | 0.00 | 21 | 1013.3 |
| 20260507174546 | 85 | 225 | 1.0 | 6.0 | 0.00 | 0.00 | 0.00 | 15 | 1013.4 |
| 20260507174035 | 84 | 0 | 0.0 | 4.0 | 0.00 | 0.00 | 0.00 | 17 | 1013.3 |
| 20260507173534 | 84 | 0 | 0.0 | 0.0 | 0.00 | 0.00 | 0.00 | 19 | 1013.5 |
| 20260507173052 | 84 | 0 | 0.0 | 3.0 | 0.00 | 0.00 | 0.00 | 19 | 1013.5 |
| 20260507172538 | 84 | 0 | 0.0 | 5.0 | 0.00 | 0.00 | 0.00 | 20 | 1013.7 |
| 20260507172035 | 84 | 0 | 1.0 | 5.0 | 0.00 | 0.00 | 0.00 | 17 | 1013.7 |
| 20260507171544 | 83 | 176 | 1.0 | 4.0 | 0.00 | 0.00 | 0.00 | 18 | 1013.7 |
| 20260507171034 | 83 | 0 | 0.0 | 6.0 | 0.00 | 0.00 | 0.00 | 22 | 1013.8 |
| 20260507170533 | 83 | 0 | 0.0 | 6.0 | 0.00 | 0.00 | 0.00 | 24 | 1013.9 |
| 20260507170044 | 82 | 273 | 1.0 | 6.0 | 0.00 | 0.00 | 0.00 | 20 | 1013.9 |
| 20260507165534 | 82 | 273 | 0.0 | 2.0 | 0.00 | 0.00 | 0.00 | 23 | 1014.0 |
| 20260507165037 | 81 | 273 | 1.0 | 4.0 | 0.00 | 0.00 | 0.00 | 23 | 1014.0 |
| 20260507164548 | 81 | 0 | 0.0 | 4.0 | 0.00 | 0.00 | 0.00 | 21 | 1014.0 |
| 20260507164035 | 80 | 0 | 1.0 | 4.0 | 0.00 | 0.00 | 0.00 | 22 | 1014.0 |
| 20260507163540 | 80 | 0 | 1.0 | 3.0 | 0.00 | 0.00 | 0.00 | 23 | 1014.0 |
| 20260507163038 | 81 | 0 | 0.0 | 3.0 | 0.00 | 0.00 | 0.00 | 23 | 1014.0 |
| 20260507162535 | 80 | 0 | 0.0 | 3.0 | 0.00 | 0.00 | 0.00 | 24 | 1014.0 |
| 20260507162038 | 80 | 196 | 0.0 | 5.0 | 0.00 | 0.00 | 0.00 | 25 | 1014.0 |
| 20260507161546 | 79 | 0 | 0.0 | 5.0 | 0.00 | 0.00 | 0.00 | 25 | 1014.1 |
| 20260507161034 | 79 | 0 | 0.0 | 0.0 | 0.00 | 0.00 | 0.00 | 25 | 1014.2 |
| 20260507160534 | 78 | 0 | 0.0 | 1.0 | 0.00 | 0.00 | 0.00 | 26 | 1014.2 |
| 20260507160054 | 77 | 0 | 0.0 | 1.0 | 0.00 | 0.00 | 0.00 | 27 | 1014.2 |
| 20260507155534 | 77 | 0 | 0.0 | 0.0 | 0.00 | 0.00 | 0.00 | 27 | 1014.2 |
| 20260507155038 | 76 | 0 | 0.0 | 1.0 | 0.00 | 0.00 | 0.00 | 28 | 1014.2 |
| 20260507154549 | 76 | 0 | 0.0 | 1.0 | 0.00 | 0.00 | 0.00 | 27 | 1014.2 |
| 20260507154033 | 75 | 0 | 0.0 | 1.0 | 0.00 | 0.00 | 0.00 | 28 | 1014.2 |
| 20260507153534 | 75 | 0 | 0.0 | 4.0 | 0.00 | 0.00 | 0.00 | 27 | 1014.3 |
| 20260507153051 | 74 | 0 | 0.0 | 4.0 | 0.00 | 0.00 | 0.00 | 28 | 1014.2 |
| 20260507152531 | 74 | 121 | 1.0 | 4.0 | 0.00 | 0.00 | 0.00 | 27 | 1014.2 |
| 20260507152035 | 73 | 0 | 0.0 | 4.0 | 0.00 | 0.00 | 0.00 | 30 | 1014.3 |
| 20260507151548 | 72 | 0 | 1.0 | 5.0 | 0.00 | 0.00 | 0.00 | 29 | 1014.3 |
| 20260507151034 | 71 | 0 | 1.0 | 6.0 | 0.00 | 0.00 | 0.00 | 29 | 1014.3 |
| 20260507150538 | 71 | 0 | 2.0 | 6.0 | 0.00 | 0.00 | 0.00 | 30 | 1014.3 |
| 20260507150049 | 70 | 106 | 1.0 | 6.0 | 0.00 | 0.00 | 0.00 | 32 | 1014.2 |
| 20260507145535 | 70 | 0 | 1.0 | 5.0 | 0.00 | 0.00 | 0.00 | 33 | 1014.2 |
| 20260507145034 | 69 | 128 | 1.0 | 6.0 | 0.00 | 0.00 | 0.00 | 33 | 1014.2 |
| 20260507144550 | 68 | 121 | 3.0 | 7.0 | 0.00 | 0.00 | 0.00 | 32 | 1014.3 |
| 20260507144034 | 67 | 124 | 2.0 | 7.0 | 0.00 | 0.00 | 0.00 | 33 | 1014.3 |
| 20260507143534 | 67 | 128 | 2.0 | 6.0 | 0.00 | 0.00 | 0.00 | 34 | 1014.4 |
| 20260507143047 | 67 | 126 | 3.0 | 6.0 | 0.00 | 0.00 | 0.00 | 33 | 1014.3 |
| 20260507142534 | 66 | 121 | 2.0 | 6.0 | 0.00 | 0.00 | 0.00 | 34 | 1014.4 |
| 20260507142034 | 66 | 283 | 1.0 | 6.0 | 0.00 | 0.00 | 0.00 | 36 | 1014.4 |
| 20260507141547 | 65 | 283 | 2.0 | 6.0 | 0.00 | 0.00 | 0.00 | 36 | 1014.5 |
| 20260507141033 | 65 | 283 | 0.0 | 6.0 | 0.00 | 0.00 | 0.00 | 36 | 1014.5 |
| 20260507140530 | 64 | 283 | 2.0 | 6.0 | 0.00 | 0.00 | 0.00 | 37 | 1014.4 |
| 20260507135533 | 63 | 283 | 1.0 | 6.0 | 0.00 | 0.00 | 0.00 | 38 | 1014.3 |
| 20260507135033 | 63 | 283 | 3.0 | 6.0 | 0.00 | 0.00 | 0.00 | 38 | 1014.3 |
| 20260507134540 | 62 | 0 | 1.0 | 4.0 | 0.00 | 0.00 | 0.00 | 40 | 1014.2 |
| 20260507134030 | 62 | 283 | 2.0 | 4.0 | 0.00 | 0.00 | 0.00 | 40 | 1014.0 |
| 20260507133535 | 61 | 283 | 1.0 | 4.0 | 0.00 | 0.00 | 0.00 | 42 | 1013.7 |
| 20260507133039 | 61 | 283 | 2.0 | 4.0 | 0.00 | 0.00 | 0.00 | 43 | 1013.5 |
| 20260507132530 | 60 | 0 | 0.0 | 0.0 | 0.00 | 0.00 | 0.00 | 43 | 1013.5 |
| 20260507132030 | 60 | 0 | 0.0 | 0.0 | 0.00 | 0.00 | 0.00 | 44 | 1013.4 |
| 20260507131549 | 59 | 0 | 0.0 | 2.0 | 0.00 | 0.00 | 0.00 | 46 | 1013.3 |
| 20260507131031 | 59 | 0 | 0.0 | 2.0 | 0.00 | 0.00 | 0.00 | 46 | 1013.2 |
| 20260507130534 | 58 | 0 | 0.0 | 1.0 | 0.00 | 0.00 | 0.00 | 46 | 1013.2 |
| 20260507130052 | 58 | 0 | 0.0 | 3.0 | 0.00 | 0.00 | 0.00 | 47 | 1013.2 |
| 20260507125534 | 58 | 0 | 0.0 | 3.0 | 0.00 | 0.00 | 0.00 | 49 | 1013.2 |
| 20260507125030 | 58 | 283 | 1.0 | 3.0 | 0.00 | 0.00 | 0.00 | 51 | 1013.3 |
| 20260507124557 | 58 | 0 | 0.0 | 0.0 | 0.00 | 0.00 | 0.00 | 52 | 1013.2 |
| 20260507124030 | 58 | 0 | 0.0 | 0.0 | 0.00 | 0.00 | 0.00 | 51 | 1013.2 |
| 20260507123534 | 58 | 0 | 0.0 | 0.0 | 0.00 | 0.00 | 0.00 | 50 | 1013.2 |
| 20260507123053 | 59 | 0 | 0.0 | 1.0 | 0.00 | 0.00 | 0.00 | 49 | 1013.2 |
| 20260507122533 | 59 | 0 | 0.0 | 1.0 | 0.00 | 0.00 | 0.00 | 49 | 1013.3 |
| 20260507122032 | 59 | 283 | 0.0 | 2.0 | 0.00 | 0.00 | 0.00 | 49 | 1013.3 |
| 20260507121543 | 59 | 0 | 0.0 | 4.0 | 0.00 | 0.00 | 0.00 | 48 | 1013.3 |
| 20260507121030 | 59 | 0 | 0.0 | 4.0 | 0.00 | 0.00 | 0.00 | 48 | 1013.3 |
| 20260507120530 | 59 | 283 | 2.0 | 4.0 | 0.00 | 0.00 | 0.00 | 49 | 1013.3 |
| 20260507120040 | 59 | 283 | 2.0 | 4.0 | 0.00 | 0.00 | 0.00 | 50 | 1013.2 |
| 20260507115531 | 59 | 0 | 0.0 | 0.0 | 0.00 | 0.00 | 0.00 | 51 | 1013.1 |
| 20260507115029 | 59 | 0 | 0.0 | 0.0 | 0.00 | 0.00 | 0.00 | 52 | 1013.1 |
| 20260507114548 | 59 | 0 | 0.0 | 0.0 | 0.00 | 0.00 | 0.00 | 51 | 1013.2 |
| 20260507114031 | 59 | 0 | 0.0 | 0.0 | 0.00 | 0.00 | 0.00 | 52 | 1013.3 |
| 20260507113530 | 59 | 0 | 0.0 | 0.0 | 0.00 | 0.00 | 0.00 | 53 | 1013.3 |
| 20260507113045 | 59 | 0 | 0.0 | 0.0 | 0.00 | 0.00 | 0.00 | 53 | 1013.2 |
| 20260507112530 | 59 | 0 | 0.0 | 0.0 | 0.00 | 0.00 | 0.00 | 53 | 1013.2 |
| 20260507112030 | 59 | 0 | 0.0 | 0.0 | 0.00 | 0.00 | 0.00 | 54 | 1013.3 |
| 20260507111547 | 59 | 0 | 0.0 | 0.0 | 0.00 | 0.00 | 0.00 | 54 | 1013.2 |
| 20260507111029 | 59 | 0 | 0.0 | 0.0 | 0.00 | 0.00 | 0.00 | 53 | 1013.2 |
| 20260507110533 | 59 | 0 | 0.0 | 0.0 | 0.00 | 0.00 | 0.00 | 53 | 1013.2 |
| 20260507110044 | 59 | 0 | 0.0 | 0.0 | 0.00 | 0.00 | 0.00 | 54 | 1013.2 |
| 20260507105532 | 59 | 0 | 0.0 | 0.0 | 0.00 | 0.00 | 0.00 | 53 | 1013.3 |
| 20260507105033 | 60 | 0 | 0.0 | 0.0 | 0.00 | 0.00 | 0.00 | 53 | 1013.3 |
| 20260507104540 | 60 | 0 | 0.0 | 0.0 | 0.00 | 0.00 | 0.00 | 53 | 1013.2 |
| 20260507104030 | 60 | 0 | 0.0 | 0.0 | 0.00 | 0.00 | 0.00 | 54 | 1013.4 |
| 20260507103529 | 60 | 0 | 0.0 | 0.0 | 0.00 | 0.00 | 0.00 | 54 | 1013.2 |
| 20260507103039 | 60 | 0 | 0.0 | 0.0 | 0.00 | 0.00 | 0.00 | 54 | 1013.3 |
| 20260507102529 | 60 | 0 | 0.0 | 0.0 | 0.00 | 0.00 | 0.00 | 55 | 1013.3 |
| 20260507102031 | 60 | 0 | 0.0 | 0.0 | 0.00 | 0.00 | 0.00 | 54 | 1013.4 |
| 20260507101545 | 60 | 0 | 0.0 | 0.0 | 0.00 | 0.00 | 0.00 | 54 | 1013.4 |
| 20260507101036 | 60 | 0 | 0.0 | 0.0 | 0.00 | 0.00 | 0.00 | 53 | 1013.4 |
| 20260507100529 | 60 | 0 | 0.0 | 0.0 | 0.00 | 0.00 | 0.00 | 52 | 1013.4 |
| 20260507100047 | 60 | 0 | 0.0 | 0.0 | 0.00 | 0.00 | 0.00 | 51 | 1013.5 |
| 20260507095532 | 61 | 0 | 0.0 | 0.0 | 0.00 | 0.00 | 0.00 | 50 | 1013.6 |
| 20260507095034 | 60 | 0 | 0.0 | 0.0 | 0.00 | 0.00 | 0.00 | 50 | 1013.6 |
| 20260507094543 | 61 | 0 | 0.0 | 0.0 | 0.00 | 0.00 | 0.00 | 50 | 1013.7 |
| 20260507094032 | 61 | 0 | 0.0 | 0.0 | 0.00 | 0.00 | 0.00 | 51 | 1013.7 |
| 20260507093532 | 61 | 0 | 0.0 | 0.0 | 0.00 | 0.00 | 0.00 | 48 | 1013.7 |
| 20260507093042 | 61 | 0 | 0.0 | 0.0 | 0.00 | 0.00 | 0.00 | 47 | 1013.8 |
| 20260507092534 | 61 | 0 | 0.0 | 0.0 | 0.00 | 0.00 | 0.00 | 47 | 1013.8 |
| 20260507092031 | 61 | 0 | 0.0 | 0.0 | 0.00 | 0.00 | 0.00 | 48 | 1013.8 |
| 20260507091538 | 62 | 0 | 0.0 | 0.0 | 0.00 | 0.00 | 0.00 | 48 | 1013.8 |
| 20260507091033 | 62 | 0 | 0.0 | 0.0 | 0.00 | 0.00 | 0.00 | 47 | 1013.8 |
| 20260507090533 | 62 | 0 | 0.0 | 0.0 | 0.00 | 0.00 | 0.00 | 46 | 1013.9 |
| 20260507090041 | 62 | 0 | 0.0 | 0.0 | 0.00 | 0.00 | 0.00 | 44 | 1014.0 |
| 20260507085531 | 62 | 0 | 0.0 | 0.0 | 0.00 | 0.00 | 0.00 | 43 | 1014.0 |
| 20260507085032 | 62 | 0 | 0.0 | 0.0 | 0.00 | 0.00 | 0.00 | 44 | 1014.0 |
| 20260507084552 | 63 | 0 | 0.0 | 0.0 | 0.00 | 0.00 | 0.00 | 47 | 1014.0 |
| 20260507084036 | 63 | 0 | 0.0 | 0.0 | 0.00 | 0.00 | 0.00 | 42 | 1014.0 |
| 20260507083532 | 63 | 0 | 0.0 | 1.0 | 0.00 | 0.00 | 0.00 | 43 | 1014.0 |
| 20260507083050 | 63 | 0 | 0.0 | 1.0 | 0.00 | 0.00 | 0.00 | 42 | 1014.1 |
| 20260507082534 | 63 | 0 | 0.0 | 1.0 | 0.00 | 0.00 | 0.00 | 43 | 1014.1 |
| 20260507082034 | 63 | 0 | 0.0 | 1.0 | 0.00 | 0.00 | 0.00 | 44 | 1014.0 |
| 20260507081543 | 63 | 0 | 0.0 | 1.0 | 0.00 | 0.00 | 0.00 | 45 | 1014.0 |
| 20260507081034 | 63 | 0 | 0.0 | 1.0 | 0.00 | 0.00 | 0.00 | 44 | 1014.0 |
| 20260507080532 | 63 | 0 | 0.0 | 0.0 | 0.00 | 0.00 | 0.00 | 44 | 1014.1 |
| 20260507080055 | 63 | 0 | 0.0 | 0.0 | 0.00 | 0.00 | 0.00 | 44 | 1014.2 |
| 20260507075532 | 63 | 0 | 0.0 | 0.0 | 0.00 | 0.00 | 0.00 | 45 | 1014.2 |
| 20260507075033 | 63 | 0 | 0.0 | 0.0 | 0.00 | 0.00 | 0.00 | 44 | 1014.2 |
| 20260507074557 | 63 | 0 | 0.0 | 0.0 | 0.00 | 0.00 | 0.00 | 42 | 1014.2 |
| 20260507074031 | 64 | 0 | 0.0 | 0.0 | 0.00 | 0.00 | 0.00 | 44 | 1014.1 |
| 20260507073531 | 64 | 0 | 0.0 | 0.0 | 0.00 | 0.00 | 0.00 | 44 | 1014.1 |
| 20260507073052 | 64 | 0 | 0.0 | 0.0 | 0.00 | 0.00 | 0.00 | 43 | 1014.1 |
| 20260507072532 | 64 | 0 | 0.0 | 0.0 | 0.00 | 0.00 | 0.00 | 40 | 1014.2 |
| 20260507072031 | 64 | 0 | 0.0 | 0.0 | 0.00 | 0.00 | 0.00 | 41 | 1014.2 |
| 20260507071600 | 65 | 0 | 0.0 | 0.0 | 0.00 | 0.00 | 0.00 | 39 | 1014.3 |
| 20260507071033 | 65 | 0 | 0.0 | 0.0 | 0.00 | 0.00 | 0.00 | 38 | 1014.3 |
| 20260507070533 | 65 | 0 | 0.0 | 0.0 | 0.00 | 0.00 | 0.00 | 38 | 1014.3 |
| 20260507070046 | 65 | 0 | 0.0 | 0.0 | 0.00 | 0.00 | 0.00 | 38 | 1014.4 |
| 20260507065533 | 66 | 0 | 0.0 | 0.0 | 0.00 | 0.00 | 0.00 | 39 | 1014.3 |
| 20260507065033 | 66 | 0 | 0.0 | 0.0 | 0.00 | 0.00 | 0.00 | 38 | 1014.3 |
| 20260507064546 | 66 | 0 | 0.0 | 0.0 | 0.00 | 0.00 | 0.00 | 38 | 1014.3 |
| 20260507064032 | 66 | 0 | 0.0 | 0.0 | 0.00 | 0.00 | 0.00 | 38 | 1014.2 |
| 20260507063531 | 66 | 0 | 0.0 | 0.0 | 0.00 | 0.00 | 0.00 | 40 | 1014.2 |
| 20260507063042 | 66 | 0 | 0.0 | 0.0 | 0.00 | 0.00 | 0.00 | 39 | 1014.2 |
| 20260507062532 | 67 | 0 | 0.0 | 0.0 | 0.00 | 0.00 | 0.00 | 39 | 1014.1 |
| 20260507062033 | 67 | 0 | 0.0 | 1.0 | 0.00 | 0.00 | 0.00 | 39 | 1014.1 |
| 20260507061539 | 67 | 0 | 0.0 | 1.0 | 0.00 | 0.00 | 0.00 | 38 | 1014.1 |
| 20260507061033 | 67 | 0 | 0.0 | 1.0 | 0.00 | 0.00 | 0.00 | 37 | 1014.1 |
| 20260507060531 | 67 | 0 | 0.0 | 1.0 | 0.00 | 0.00 | 0.00 | 38 | 1014.1 |
| 20260507060039 | 67 | 0 | 0.0 | 1.0 | 0.00 | 0.00 | 0.00 | 39 | 1014.2 |
| 20260507055532 | 67 | 0 | 0.0 | 0.0 | 0.00 | 0.00 | 0.00 | 39 | 1014.1 |
| 20260507055031 | 67 | 0 | 0.0 | 0.0 | 0.00 | 0.00 | 0.00 | 36 | 1014.3 |
| 20260507054552 | 67 | 0 | 0.0 | 0.0 | 0.00 | 0.00 | 0.00 | 39 | 1014.2 |
| 20260507054031 | 67 | 0 | 0.0 | 0.0 | 0.00 | 0.00 | 0.00 | 39 | 1014.2 |
| 20260507053532 | 67 | 0 | 0.0 | 0.0 | 0.00 | 0.00 | 0.00 | 37 | 1014.2 |
| 20260507053052 | 68 | 0 | 0.0 | 0.0 | 0.00 | 0.00 | 0.00 | 37 | 1014.2 |
| 20260507052534 | 68 | 0 | 0.0 | 0.0 | 0.00 | 0.00 | 0.00 | 36 | 1014.2 |
| 20260507052029 | 68 | 0 | 0.0 | 0.0 | 0.00 | 0.00 | 0.00 | 35 | 1014.2 |
| 20260507051545 | 69 | 0 | 0.0 | 0.0 | 0.00 | 0.00 | 0.00 | 36 | 1014.2 |
| 20260507051028 | 69 | 0 | 0.0 | 0.0 | 0.00 | 0.00 | 0.00 | 35 | 1014.1 |
| 20260507050533 | 69 | 0 | 0.0 | 0.0 | 0.00 | 0.00 | 0.00 | 35 | 1014.1 |
| 20260507050051 | 69 | 0 | 0.0 | 0.0 | 0.00 | 0.00 | 0.00 | 34 | 1013.9 |
| 20260507045532 | 69 | 0 | 0.0 | 0.0 | 0.00 | 0.00 | 0.00 | 33 | 1013.8 |
| 20260507045032 | 70 | 0 | 0.0 | 1.0 | 0.00 | 0.00 | 0.00 | 32 | 1013.8 |
| 20260507044539 | 70 | 0 | 0.0 | 1.0 | 0.00 | 0.00 | 0.00 | 32 | 1013.8 |
| 20260507044034 | 70 | 0 | 0.0 | 0.0 | 0.00 | 0.00 | 0.00 | 33 | 1013.7 |
| 20260507043533 | 70 | 0 | 0.0 | 0.0 | 0.00 | 0.00 | 0.00 | 32 | 1013.8 |
| 20260507043039 | 70 | 0 | 0.0 | 0.0 | 0.00 | 0.00 | 0.00 | 32 | 1013.8 |
| 20260507042532 | 70 | 0 | 0.0 | 0.0 | 0.00 | 0.00 | 0.00 | 31 | 1013.8 |
| 20260507042032 | 71 | 0 | 0.0 | 0.0 | 0.00 | 0.00 | 0.00 | 28 | 1013.8 |
| 20260507041538 | 71 | 0 | 0.0 | 0.0 | 0.00 | 0.00 | 0.00 | 28 | 1013.7 |
| 20260507041031 | 71 | 0 | 0.0 | 0.0 | 0.00 | 0.00 | 0.00 | 28 | 1013.8 |
| 20260507040532 | 72 | 0 | 0.0 | 0.0 | 0.00 | 0.00 | 0.00 | 28 | 1013.7 |
| 20260507040058 | 72 | 0 | 0.0 | 0.0 | 0.00 | 0.00 | 0.00 | 29 | 1013.7 |
| 20260507035529 | 72 | 0 | 0.0 | 0.0 | 0.00 | 0.00 | 0.00 | 28 | 1013.7 |
| 20260507035032 | 73 | 0 | 0.0 | 1.0 | 0.00 | 0.00 | 0.00 | 26 | 1013.6 |
| 20260507034553 | 73 | 0 | 0.0 | 1.0 | 0.00 | 0.00 | 0.00 | 27 | 1013.5 |
| 20260507034033 | 73 | 0 | 0.0 | 0.0 | 0.00 | 0.00 | 0.00 | 26 | 1013.3 |
| 20260507033533 | 74 | 0 | 0.0 | 0.0 | 0.00 | 0.00 | 0.00 | 25 | 1013.3 |
| 20260507033043 | 74 | 0 | 0.0 | 0.0 | 0.00 | 0.00 | 0.00 | 25 | 1013.2 |
| 20260507032535 | 75 | 0 | 0.0 | 1.0 | 0.00 | 0.00 | 0.00 | 25 | 1013.2 |
| 20260507032032 | 75 | 0 | 0.0 | 1.0 | 0.00 | 0.00 | 0.00 | 24 | 1013.2 |
| 20260507031539 | 76 | 0 | 0.0 | 1.0 | 0.00 | 0.00 | 0.00 | 24 | 1013.3 |
| 20260507031033 | 76 | 0 | 0.0 | 1.0 | 0.00 | 0.00 | 0.00 | 24 | 1013.4 |
| 20260507030532 | 76 | 0 | 0.0 | 1.0 | 0.00 | 0.00 | 0.00 | 23 | 1013.3 |
| 20260507030038 | 76 | 0 | 0.0 | 2.0 | 0.00 | 0.00 | 0.00 | 23 | 1013.3 |
| 20260507025532 | 77 | 0 | 0.0 | 2.0 | 0.00 | 0.00 | 0.00 | 24 | 1013.3 |
| 20260507025031 | 77 | 0 | 0.0 | 3.0 | 0.00 | 0.00 | 0.00 | 23 | 1013.1 |
| 20260507024545 | 77 | 0 | 0.0 | 3.0 | 0.00 | 0.00 | 0.00 | 22 | 1013.1 |
| 20260507024031 | 77 | 283 | 0.0 | 3.0 | 0.00 | 0.00 | 0.00 | 22 | 1013.1 |
| 20260507023531 | 77 | 283 | 0.0 | 2.0 | 0.00 | 0.00 | 0.00 | 22 | 1013.0 |
| 20260507023045 | 78 | 0 | 0.0 | 3.0 | 0.00 | 0.00 | 0.00 | 22 | 1012.9 |
| 20260507022532 | 78 | 0 | 0.0 | 3.0 | 0.00 | 0.00 | 0.00 | 22 | 1012.9 |
| 20260507022029 | 78 | 0 | 1.0 | 3.0 | 0.00 | 0.00 | 0.00 | 22 | 1012.9 |
| 20260507021546 | 78 | 283 | 0.0 | 1.0 | 0.00 | 0.00 | 0.00 | 22 | 1012.9 |
| 20260507021033 | 78 | 0 | 0.0 | 1.0 | 0.00 | 0.00 | 0.00 | 22 | 1012.8 |
| 20260507020532 | 79 | 0 | 0.0 | 1.0 | 0.00 | 0.00 | 0.00 | 22 | 1012.7 |
| 20260507020040 | 79 | 0 | 0.0 | 0.0 | 0.00 | 0.00 | 0.00 | 21 | 1012.7 |
| 20260507015531 | 79 | 0 | 0.0 | 0.0 | 0.00 | 0.00 | 0.00 | 21 | 1012.6 |
| 20260507015032 | 79 | 0 | 0.0 | 0.0 | 0.00 | 0.00 | 0.00 | 20 | 1012.6 |
| 20260507014538 | 80 | 0 | 0.0 | 0.0 | 0.00 | 0.00 | 0.00 | 21 | 1012.7 |
| 20260507014033 | 80 | 0 | 0.0 | 0.0 | 0.00 | 0.00 | 0.00 | 20 | 1012.7 |
| 20260507013536 | 80 | 0 | 0.0 | 6.0 | 0.00 | 0.00 | 0.00 | 20 | 1012.7 |
| 20260507013048 | 81 | 0 | 0.0 | 6.0 | 0.00 | 0.00 | 0.00 | 19 | 1012.6 |
| 20260507012531 | 81 | 0 | 0.0 | 4.0 | 0.00 | 0.00 | 0.00 | 19 | 1012.7 |
| 20260507012031 | 81 | 283 | 1.0 | 6.0 | 0.00 | 0.00 | 0.00 | 19 | 1012.7 |
| 20260507011540 | 82 | 283 | 1.0 | 6.0 | 0.00 | 0.00 | 0.00 | 20 | 1012.8 |
| 20260507011031 | 82 | 283 | 0.0 | 6.0 | 0.00 | 0.00 | 0.00 | 19 | 1012.7 |
| 20260507010531 | 81 | 0 | 0.0 | 7.0 | 0.00 | 0.00 | 0.00 | 19 | 1012.7 |
| 20260507010044 | 82 | 288 | 3.0 | 7.0 | 0.00 | 0.00 | 0.00 | 19 | 1012.7 |
| 20260507005533 | 82 | 273 | 2.0 | 4.0 | 0.00 | 0.00 | 0.00 | 19 | 1012.7 |
| 20260507005032 | 82 | 0 | 0.0 | 1.0 | 0.00 | 0.00 | 0.00 | 20 | 1012.7 |
| 20260507004542 | 82 | 0 | 0.0 | 6.0 | 0.00 | 0.00 | 0.00 | 20 | 1012.7 |
| 20260507004033 | 82 | 0 | 0.0 | 6.0 | 0.00 | 0.00 | 0.00 | 19 | 1012.6 |
| 20260507003535 | 83 | 270 | 2.0 | 6.0 | 0.00 | 0.00 | 0.00 | 19 | 1012.7 |
| 20260507003041 | 83 | 270 | 0.0 | 3.0 | 0.00 | 0.00 | 0.00 | 19 | 1012.6 |
| 20260507002533 | 83 | 270 | 0.0 | 2.0 | 0.00 | 0.00 | 0.00 | 18 | 1012.5 |
| 20260507002034 | 83 | 0 | 0.0 | 2.0 | 0.00 | 0.00 | 0.00 | 19 | 1012.6 |
| 20260507001548 | 83 | 0 | 0.0 | 3.0 | 0.00 | 0.00 | 0.00 | 20 | 1012.6 |
| 20260507001031 | 83 | 0 | 0.0 | 3.0 | 0.00 | 0.00 | 0.00 | 19 | 1012.6 |
| 20260507000531 | 83 | 265 | 0.0 | 7.0 | 0.00 | 0.00 | 0.00 | 19 | 1012.6 |
| 20260507000057 | 82 | 0 | 1.0 | 7.0 | 0.00 | 0.00 | 0.00 | 20 | 1012.7 |
| 20260506235532 | 82 | 267 | 0.0 | 6.0 | 0.00 | 0.00 | 0.00 | 19 | 1012.7 |
| 20260506235032 | 82 | 279 | 1.0 | 4.0 | 0.00 | 0.00 | 0.00 | 19 | 1012.6 |
| 20260506234544 | 82 | 0 | 0.0 | 7.0 | 0.00 | 0.00 | 0.00 | 19 | 1012.7 |
| 20260506234031 | 82 | 279 | 2.0 | 7.0 | 0.00 | 0.00 | 0.00 | 19 | 1012.7 |
| 20260506233533 | 82 | 277 | 1.0 | 8.0 | 0.00 | 0.00 | 0.00 | 20 | 1012.7 |
| 20260506233046 | 82 | 277 | 3.0 | 8.0 | 0.00 | 0.00 | 0.00 | 19 | 1012.7 |
| 20260506232531 | 83 | 304 | 3.0 | 8.0 | 0.00 | 0.00 | 0.00 | 21 | 1012.7 |
| 20260506232031 | 83 | 281 | 2.0 | 9.0 | 0.00 | 0.00 | 0.00 | 19 | 1012.8 |
| 20260506231544 | 83 | 0 | 1.0 | 9.0 | 0.00 | 0.00 | 0.00 | 20 | 1012.8 |
| 20260506231033 | 82 | 0 | 0.0 | 8.0 | 0.00 | 0.00 | 0.00 | 22 | 1012.8 |
| 20260506230532 | 82 | 0 | 3.0 | 8.0 | 0.00 | 0.00 | 0.00 | 20 | 1013.0 |
| 20260506230047 | 82 | 288 | 1.0 | 5.0 | 0.00 | 0.00 | 0.00 | 22 | 1013.1 |
| 20260506225531 | 81 | 320 | 0.0 | 7.0 | 0.00 | 0.00 | 0.00 | 24 | 1013.1 |
| 20260506225032 | 82 | 289 | 1.0 | 9.0 | 0.00 | 0.00 | 0.00 | 23 | 1013.2 |
| 20260506224550 | 82 | 285 | 3.0 | 9.0 | 0.00 | 0.00 | 0.00 | 21 | 1013.2 |
| 20260506224032 | 82 | 0 | 1.0 | 9.0 | 0.00 | 0.00 | 0.00 | 21 | 1013.3 |
| 20260506223531 | 82 | 0 | 1.0 | 9.0 | 0.00 | 0.00 | 0.00 | 21 | 1013.4 |
| 20260506223037 | 82 | 286 | 1.0 | 8.0 | 0.00 | 0.00 | 0.00 | 21 | 1013.4 |
| 20260506222532 | 82 | 273 | 0.0 | 5.0 | 0.00 | 0.00 | 0.00 | 22 | 1013.5 |
| 20260506222033 | 81 | 0 | 0.0 | 1.0 | 0.00 | 0.00 | 0.00 | 20 | 1013.5 |
| 20260506221546 | 80 | 0 | 0.0 | 0.0 | 0.00 | 0.00 | 0.00 | 22 | 1013.5 |
| 20260506221033 | 80 | 0 | 0.0 | 1.0 | 0.00 | 0.00 | 0.00 | 20 | 1013.5 |
| 20260506220531 | 81 | 0 | 0.0 | 4.0 | 0.00 | 0.00 | 0.00 | 20 | 1013.6 |
| 20260506220058 | 81 | 0 | 0.0 | 5.0 | 0.00 | 0.00 | 0.00 | 21 | 1013.7 |
| 20260506215531 | 81 | 288 | 2.0 | 5.0 | 0.00 | 0.00 | 0.00 | 22 | 1013.8 |
| 20260506215031 | 81 | 289 | 0.0 | 3.0 | 0.00 | 0.00 | 0.00 | 22 | 1013.8 |
| 20260506214546 | 81 | 315 | 1.0 | 3.0 | 0.00 | 0.00 | 0.00 | 22 | 1014.0 |
| 20260506214032 | 80 | 0 | 0.0 | 4.0 | 0.00 | 0.00 | 0.00 | 25 | 1014.1 |
| 20260506213533 | 80 | 286 | 1.0 | 5.0 | 0.00 | 0.00 | 0.00 | 25 | 1014.2 |
| 20260506213041 | 80 | 290 | 1.0 | 5.0 | 0.00 | 0.00 | 0.00 | 23 | 1014.2 |
| 20260506212534 | 80 | 287 | 1.0 | 5.0 | 0.00 | 0.00 | 0.00 | 27 | 1014.3 |
| 20260506212032 | 80 | 0 | 0.0 | 6.0 | 0.00 | 0.00 | 0.00 | 25 | 1014.3 |
| 20260506211540 | 80 | 304 | 2.0 | 6.0 | 0.00 | 0.00 | 0.00 | 24 | 1014.3 |
| 20260506211032 | 80 | 310 | 1.0 | 4.0 | 0.00 | 0.00 | 0.00 | 26 | 1014.4 |
| 20260506210534 | 79 | 0 | 1.0 | 7.0 | 0.00 | 0.00 | 0.00 | 22 | 1014.5 |
| 20260506210057 | 80 | 343 | 1.0 | 7.0 | 0.00 | 0.00 | 0.00 | 24 | 1014.5 |
| 20260506205531 | 79 | 288 | 0.0 | 9.0 | 0.00 | 0.00 | 0.00 | 24 | 1014.6 |
| 20260506205031 | 79 | 317 | 1.0 | 9.0 | 0.00 | 0.00 | 0.00 | 27 | 1014.6 |
| 20260506204550 | 79 | 0 | 1.0 | 9.0 | 0.00 | 0.00 | 0.00 | 26 | 1014.6 |
| 20260506204034 | 79 | 297 | 1.0 | 7.0 | 0.00 | 0.00 | 0.00 | 23 | 1014.7 |
| 20260506203533 | 78 | 33 | 1.0 | 7.0 | 0.00 | 0.00 | 0.00 | 24 | 1014.7 |
| 20260506203130 | 78 | 38 | 2.0 | 7.0 | 0.00 | 0.00 | 0.00 | 22 | 1014.8 |
| 20260506202531 | 78 | 285 | 2.0 | 7.0 | 0.00 | 0.00 | 0.00 | 23 | 1014.9 |
| 20260506202031 | 78 | 0 | 0.0 | 8.0 | 0.00 | 0.00 | 0.00 | 25 | 1015.0 |
| 20260506201548 | 77 | 0 | 3.0 | 8.0 | 0.00 | 0.00 | 0.00 | 24 | 1015.1 |
| 20260506201031 | 77 | 288 | 2.0 | 6.0 | 0.00 | 0.00 | 0.00 | 25 | 1015.1 |
| 20260506200531 | 77 | 41 | 2.0 | 7.0 | 0.00 | 0.00 | 0.00 | 25 | 1015.1 |
| 20260506200048 | 77 | 277 | 1.0 | 7.0 | 0.00 | 0.00 | 0.00 | 29 | 1015.3 |
| 20260506195531 | 77 | 277 | 1.0 | 7.0 | 0.00 | 0.00 | 0.00 | 28 | 1015.4 |
| 20260506195031 | 77 | 271 | 2.0 | 7.0 | 0.00 | 0.00 | 0.00 | 25 | 1015.3 |
| 20260506194541 | 77 | 250 | 3.0 | 7.0 | 0.00 | 0.00 | 0.00 | 26 | 1015.4 |
| 20260506194031 | 77 | 286 | 3.0 | 7.0 | 0.00 | 0.00 | 0.00 | 26 | 1015.4 |
| 20260506193530 | 77 | 37 | 1.0 | 7.0 | 0.00 | 0.00 | 0.00 | 25 | 1015.5 |
| 20260506193039 | 77 | 285 | 2.0 | 8.0 | 0.00 | 0.00 | 0.00 | 32 | 1015.6 |
| 20260506192533 | 77 | 287 | 2.0 | 8.0 | 0.00 | 0.00 | 0.00 | 29 | 1015.7 |
| 20260506192031 | 77 | 281 | 5.0 | 8.0 | 0.00 | 0.00 | 0.00 | 25 | 1015.7 |
| 20260506191539 | 77 | 277 | 0.0 | 8.0 | 0.00 | 0.00 | 0.00 | 28 | 1015.7 |
| 20260506191034 | 76 | 277 | 1.0 | 8.0 | 0.00 | 0.00 | 0.00 | 29 | 1015.7 |
| 20260506190531 | 76 | 0 | 2.0 | 8.0 | 0.00 | 0.00 | 0.00 | 26 | 1015.9 |
| 20260506190046 | 76 | 277 | 2.0 | 6.0 | 0.00 | 0.00 | 0.00 | 31 | 1015.9 |
| 20260506185531 | 76 | 319 | 1.0 | 7.0 | 0.00 | 0.00 | 0.00 | 27 | 1015.9 |
| 20260506185031 | 76 | 0 | 2.0 | 7.0 | 0.00 | 0.00 | 0.00 | 26 | 1015.9 |
| 20260506184553 | 76 | 269 | 1.0 | 7.0 | 0.00 | 0.00 | 0.00 | 30 | 1016.0 |
| 20260506184032 | 76 | 352 | 1.0 | 4.0 | 0.00 | 0.00 | 0.00 | 30 | 1016.0 |
| 20260506183533 | 75 | 282 | 1.0 | 4.0 | 0.00 | 0.00 | 0.00 | 34 | 1016.1 |
| 20260506183039 | 75 | 0 | 1.0 | 5.0 | 0.00 | 0.00 | 0.00 | 27 | 1016.1 |
| 20260506182532 | 75 | 284 | 0.0 | 6.0 | 0.00 | 0.00 | 0.00 | 29 | 1016.2 |